Location: Ellerstadt
(49.4644°N, 8.2615°E)
Time: 04:38:14
(UTC+00:00)

H-2A R/B - Pass Details

Date: 03 March 2021
Orbit: 732 x 837 km, 98.2° (Epoch: 11 April)

Event Time Altitude Azimuth Distance (km) Brightness Sun altitude
Rises 18:01:08 0° 166° (SSE) 3,368 5.2 -8.6°
Reaches altitude 10° 18:03:28 10° 167° (SSE) 2,443 4.5 -9.0°
Maximum altitude 18:08:56 84° 255° (WSW) 849 2.3 -9.8°
Drops below altitude 10° 18:14:25 10° 345° (NNW) 2,454 4.8 -10.7°
Sets 18:16:47 0° 346° (NNW) 3,385 5.6 -11.1°
